KI5QWQ Weather Reports


Display with metric or nautical units.
time (UTC)temp
F
wind
direction
speed
MPH
gust
MPH
rain 1hr
in
rain 24hr
in
rain mn
in
humidity
%
barometer
mb
20260506004239 0 225 1.0 4.0 0.00 0.00 0.00
20260506003734 0 219 1.0 3.0 0.00 0.00 0.00
20260506003231 0 191 2.0 5.0 0.00 0.00 0.00
20260506002727 0 237 0.0 3.0 0.00 0.00 0.00
20260506002224 0 205 2.0 6.0 0.00 0.00 0.00
20260506001719 0 252 0.0 5.0 0.00 0.00 0.00 1008.4
20260506001218 0 185 0.0 5.0 0.00 0.00 0.00 1008.4
20260506000714 0 204 1.0 2.0 0.00 0.00 0.00 1008.4
20260506000212 0 196 1.0 3.0 0.00 0.00 0.00 1008.4
20260505235709 0 272 1.0 2.0 0.00 0.00 0.00 1008.4
20260505235206 0 208 1.0 2.0 0.00 0.00 0.00 1008.4
20260505234703 0 166 0.0 4.0 0.00 0.00 0.00 1008.4
20260505234200 0 247 1.0 3.0 0.00 0.00 0.00 1008.4
20260505233657 0 224 0.0 4.0 0.00 0.00 0.00 1008.4
20260505233155 0 259 0.0 3.0 0.00 0.00 0.00 1008.4
20260505232652 0 237 2.0 3.0 0.00 0.00 0.00 1008.4
20260505232150 0 206 1.0 3.0 0.00 0.00 0.00 1008.4
20260505231646 0 220 3.0 6.0 0.00 0.00 0.00 1008.4
20260505231145 0 196 1.0 2.0 0.00 0.00 0.00 1008.3
20260505230643 0 120 5.0 7.0 0.00 0.00 0.00 1008.2
20260505230138 0 218 2.0 5.0 0.00 0.00 0.00 1008.2
20260505225635 0 148 2.0 4.0 0.00 0.00 0.00 1008.2
20260505225132 0 170 4.0 11.0 0.00 0.00 0.00 1008.0
20260505224628 0 180 2.0 8.0 0.00 0.00 0.00 1008.1
20260505224126 0 107 0.0 6.0 0.00 0.00 0.00 1008.0
20260505223623 0 173 2.0 4.0 0.00 0.00 0.00 1008.1
20260505223119 0 233 2.0 3.0 0.00 0.00 0.00 1008.2
20260505222615 0 210 3.0 3.0 0.00 0.00 0.00 1008.1
20260505222112 0 215 1.0 3.0 0.00 0.00 0.00 1008.2
20260505221609 0 223 3.0 4.0 0.00 0.00 0.00 1008.0
20260505221105 0 219 3.0 3.0 0.00 0.00 0.00 1008.0
20260505220603 0 135 3.0 5.0 0.00 0.00 0.00
20260505220101 0 244 1.0 4.0 0.00 0.00 0.00
20260505215558 0 180 2.0 4.0 0.00 0.00 0.00 1008.8
20260505215056 0 219 0.0 4.0 0.00 0.00 0.00 1008.8
20260505214554 0 238 2.0 4.0 0.00 0.00 0.00 1008.8
20260505214050 0 203 1.0 4.0 0.00 0.00 0.00 1008.8
20260505213548 0 183 2.0 2.0 0.00 0.00 0.00 1008.8
20260505213044 0 230 3.0 6.0 0.00 0.00 0.00 1008.8
20260505212541 0 216 3.0 7.0 0.00 0.00 0.00 1008.8
20260505212038 0 169 2.0 4.0 0.00 0.00 0.00 1008.8
20260505211535 0 162 1.0 4.0 0.00 0.00 0.00 1008.8
20260505211031 0 233 3.0 5.0 0.00 0.00 0.00 1008.8
20260505210528 0 152 5.0 7.0 0.00 0.00 0.00 1008.8
20260505210026 0 204 2.0 7.0 0.00 0.00 0.00 1008.8
20260505205524 0 208 1.0 5.0 0.00 0.00 0.00 1008.8
20260505205021 0 223 2.0 5.0 0.00 0.00 0.00 1008.9
20260505204518 0 208 3.0 4.0 0.00 0.00 0.00 1009.1
20260505204015 0 231 1.0 4.0 0.00 0.00 0.00 1008.8
20260505203512 0 197 2.0 5.0 0.00 0.00 0.00 1009.1
20260505203009 0 180 1.0 10.0 0.00 0.00 0.00 1009.2
20260505202505 0 266 2.0 4.0 0.00 0.00 0.00 1009.1
20260505202001 0 220 2.0 6.0 0.00 0.00 0.00 1009.4
20260505201458 0 272 3.0 4.0 0.00 0.00 0.00 1009.4
20260505200955 0 96 3.0 4.0 0.00 0.00 0.00 1009.5
20260505200453 0 223 1.0 3.0 0.00 0.00 0.00 1009.6
20260505195949 0 196 1.0 6.0 0.00 0.00 0.00 1009.7
20260505195446 0 216 4.0 5.0 0.00 0.00 0.00 1009.8
20260505194943 0 227 2.0 3.0 0.00 0.00 0.00 1009.6
20260505194441 0 150 4.0 9.0 0.00 0.00 0.00 1009.7
20260505193941 0 191 2.0 5.0 0.00 0.00 0.00 1010.0
20260505193438 0 326 0.0 3.0 0.00 0.00 0.00 1010.0
20260505192936 0 234 2.0 6.0 0.00 0.00 0.00 1010.0
20260505192434 0 229 2.0 9.0 0.00 0.00 0.00 1010.1
20260505191931 0 192 2.0 7.0 0.00 0.00 0.00 1009.9
20260505191430 0 8 1.0 10.0 0.00 0.00 0.00 1010.2
20260505190926 0 227 2.0 4.0 0.00 0.00 0.00 1010.2
20260505190422 0 283 2.0 4.0 0.00 0.00 0.00 1010.2
20260505185917 0 229 2.0 6.0 0.00 0.00 0.00 1010.5
20260505185415 0 142 2.0 5.0 0.00 0.00 0.00 1010.3
20260505184911 0 248 3.0 5.0 0.00 0.00 0.00 1010.5
20260505184408 0 202 1.0 4.0 0.00 0.00 0.00 1010.6
20260505183905 0 269 1.0 4.0 0.00 0.00 0.00 1010.8
20260505183402 0 279 3.0 4.0 0.00 0.00 0.00 1010.8
20260505182858 0 269 3.0 6.0 0.00 0.00 0.00 1011.0
20260505182355 0 211 3.0 5.0 0.00 0.00 0.00 1011.0
20260505181851 0 217 2.0 7.0 0.00 0.00 0.00 1011.1
20260505181349 0 225 2.0 4.0 0.00 0.00 0.00 1011.1
20260505180845 0 231 3.0 4.0 0.00 0.00 0.00 1011.0
20260505180342 0 226 2.0 5.0 0.00 0.00 0.00 1011.2
20260505175839 0 250 3.0 5.0 0.00 0.00 0.00 1011.3
20260505175335 0 198 1.0 3.0 0.00 0.00 0.00 1011.3
20260505174831 0 255 1.0 4.0 0.00 0.00 0.00 1011.6
20260505174329 0 180 0.0 2.0 0.00 0.00 0.00 1011.5
20260505173824 0 219 3.0 5.0 0.00 0.00 0.00 1011.4
20260505173321 0 245 3.0 4.0 0.00 0.00 0.00 1011.4
20260505172819 0 221 2.0 5.0 0.00 0.00 0.00 1011.5
20260505172317 0 271 0.0 5.0 0.00 0.00 0.00 1011.5
20260505171815 0 212 4.0 7.0 0.00 0.00 0.00 1011.4
20260505171313 0 229 0.0 3.0 0.00 0.00 0.00 1011.5
20260505170809 0 242 0.0 3.0 0.00 0.00 0.00 1011.4
20260505170306 0 248 0.0 2.0 0.00 0.00 0.00 1011.7
20260505165801 0 199 2.0 3.0 0.00 0.00 0.00 1011.5
20260505165257 0 217 2.0 3.0 0.00 0.00 0.00 1011.5
20260505164753 0 193 0.0 3.0 0.00 0.00 0.00 1011.5
20260505164251 0 215 1.0 3.0 0.00 0.00 0.00 1011.6
20260505163749 0 228 2.0 4.0 0.00 0.00 0.00 1011.8
20260505163247 0 211 2.0 5.0 0.00 0.00 0.00 1011.7
20260505162744 0 227 2.0 4.0 0.00 0.00 0.00 1011.6
20260505162241 0 263 0.0 3.0 0.00 0.00 0.00 1011.6
20260505161738 0 225 2.0 3.0 0.00 0.00 0.00 1011.8
20260505161236 0 228 2.0 5.0 0.00 0.00 0.00 1011.8
20260505160733 0 235 0.0 3.0 0.00 0.00 0.00 1011.5
20260505160231 0 221 3.0 3.0 0.00 0.00 0.00 1011.6
20260505153210 0 223 1.0 7.0 0.00 0.00 0.00 1011.7
20260505152706 0 216 0.0 3.0 0.00 0.00 0.00 1011.7
20260505152202 0 187 1.0 6.0 0.00 0.00 0.00 1011.8
20260505151657 0 194 3.0 6.0 0.00 0.00 0.00 1011.6
20260505151156 0 217 3.0 4.0 0.00 0.00 0.00 1011.9
20260505150651 0 200 0.0 3.0 0.00 0.00 0.00 1011.6
20260505150149 0 225 0.0 2.0 0.00 0.00 0.00 1011.5
20260505140617 0 236 0.0 4.0 0.00 0.00 0.00 1011.2
20260505140114 0 228 1.0 3.0 0.00 0.00 0.00 1011.1
20260505125030 0 199 3.0 4.0 0.00 0.00 0.00 1010.6
20260505124527 0 248 1.0 3.0 0.00 0.00 0.00 1010.6
20260505124023 0 212 0.0 5.0 0.00 0.00 0.00 1010.5
20260505123520 0 178 1.0 3.0 0.00 0.00 0.00 1010.4
20260505123016 0 254 2.0 4.0 0.00 0.00 0.00 1010.3
20260505122513 0 204 1.0 5.0 0.00 0.00 0.00 1010.1
20260505122010 0 185 2.0 8.0 0.00 0.00 0.00 1010.1
20260505121506 0 191 2.0 3.0 0.00 0.00 0.00 1009.9
20260505121003 0 216 2.0 4.0 0.00 0.00 0.00 1010.1
20260505120500 0 212 2.0 5.0 0.00 0.00 0.00 1010.0
20260505115959 0 197 1.0 3.0 0.00 0.00 0.00 1010.0
20260505115455 0 174 1.0 4.0 0.00 0.00 0.00 1009.9
20260505114953 0 212 1.0 5.0 0.00 0.00 0.00 1009.6
20260505114449 0 175 0.0 3.0 0.00 0.00 0.00 1009.8
20260505113946 0 199 3.0 7.0 0.00 0.00 0.00 1009.8
20260505113442 0 185 1.0 3.0 0.00 0.00 0.00 1009.9
20260505112938 0 256 0.0 4.0 0.00 0.00 0.00 1009.8
20260505112436 0 212 2.0 3.0 0.00 0.00 0.00 1009.7
20260505111932 0 214 3.0 8.0 0.00 0.00 0.00 1009.6
20260505111426 0 239 1.0 4.0 0.00 0.00 0.00 1009.6
20260505110923 0 154 1.0 6.0 0.00 0.00 0.00 1009.8
20260505110420 0 179 2.0 4.0 0.00 0.00 0.00 1009.7
20260505101851 0 222 1.0 6.0 0.00 0.00 0.00 1009.9
20260505101346 0 186 0.0 5.0 0.00 0.00 0.00 1010.0
20260505100842 0 193 2.0 3.0 0.00 0.00 0.00 1010.1
20260505100339 0 187 2.0 6.0 0.00 0.00 0.00 1010.3
20260505095834 0 170 1.0 4.0 0.00 0.00 0.00 1010.4
20260505095332 0 216 2.0 4.0 0.00 0.00 0.00 1010.2
20260505094827 0 236 1.0 2.0 0.00 0.00 0.00 1010.2
20260505094325 0 148 1.0 5.0 0.00 0.00 0.00 1010.2
20260505093820 0 189 2.0 3.0 0.00 0.00 0.00 1010.3
20260505093318 0 222 3.0 4.0 0.00 0.00 0.00 1010.3
20260505092814 0 215 1.0 3.0 0.00 0.00 0.00 1010.2
20260505092313 0 218 0.0 7.0 0.00 0.00 0.00 1010.3
20260505091810 0 207 0.0 3.0 0.00 0.00 0.00 1010.3
20260505091308 0 184 2.0 3.0 0.00 0.00 0.00 1010.4
20260505090806 0 230 0.0 8.0 0.00 0.00 0.00 1010.5
20260505090304 0 180 0.0 3.0 0.00 0.00 0.00 1010.5
20260505085801 0 170 2.0 4.0 0.00 0.00 0.00 1010.2
20260505085259 0 123 1.0 5.0 0.00 0.00 0.00 1010.4
20260505084756 0 200 1.0 3.0 0.00 0.00 0.00 1010.6
20260505084255 0 175 2.0 3.0 0.00 0.00 0.00 1010.5
20260505083751 0 212 0.0 3.0 0.00 0.00 0.00 1010.5
20260505083248 0 200 2.0 4.0 0.00 0.00 0.00 1010.5
20260505082744 0 195 1.0 4.0 0.00 0.00 0.00 1010.5
20260505082242 0 222 1.0 6.0 0.00 0.00 0.00 1010.7
20260505081737 0 261 1.0 9.0 0.00 0.00 0.00 1010.8
20260505081235 0 292 2.0 4.0 0.00 0.00 0.00 1010.8
20260505080732 0 172 4.0 13.0 0.00 0.00 0.00 1010.8
20260505080227 0 232 2.0 4.0 0.00 0.00 0.00 1010.9
20260505075723 0 223 2.0 4.0 0.00 0.00 0.00 1010.8
20260505075221 0 184 1.0 3.0 0.00 0.00 0.00 1010.9
20260505074718 0 195 2.0 6.0 0.00 0.00 0.00 1010.9
20260505074215 0 221 0.0 5.0 0.00 0.00 0.00 1011.0
20260505073712 0 182 4.0 8.0 0.00 0.00 0.00 1011.0
20260505073210 0 211 1.0 3.0 0.00 0.00 0.00 1011.0
20260505072706 0 208 3.0 5.0 0.00 0.00 0.00 1011.0
20260505072202 0 205 3.0 4.0 0.00 0.00 0.00 1011.1
20260505071658 0 227 1.0 7.0 0.00 0.00 0.00 1011.2
20260505071156 0 213 2.0 5.0 0.00 0.00 0.00 1011.3
20260505070653 0 184 1.0 3.0 0.00 0.00 0.00 1011.4
20260505070149 0 217 1.0 4.0 0.00 0.00 0.00 1011.5
20260505065645 0 195 1.0 5.0 0.00 0.00 0.00 1011.6
20260505065142 0 239 2.0 5.0 0.00 0.00 0.00 1011.6
20260505064639 0 217 2.0 8.0 0.00 0.00 0.00 1011.6
20260505064137 0 221 1.0 5.0 0.00 0.00 0.00 1011.6
20260505063634 0 246 2.0 5.0 0.00 0.00 0.00 1011.5
20260505063130 0 151 3.0 6.0 0.00 0.00 0.00 1011.7
20260505062627 0 28 1.0 6.0 0.00 0.00 0.00 1011.9
20260505062124 0 180 1.0 13.0 0.00 0.00 0.00 1011.8
20260505061621 0 156 0.0 3.0 0.00 0.00 0.00 1011.8
20260505061119 0 199 0.0 3.0 0.00 0.00 0.00 1011.9
20260505060617 0 180 1.0 9.0 0.00 0.00 0.00 1011.9
20260505060113 0 190 2.0 10.0 0.00 0.00 0.00 1011.7
20260505055608 0 216 2.0 3.0 0.00 0.00 0.00 1011.8
20260505055105 0 242 1.0 3.0 0.00 0.00 0.00 1011.9
20260505054602 0 207 2.0 3.0 0.00 0.00 0.00 1011.9
20260505054101 0 184 2.0 4.0 0.00 0.00 0.00 1011.9
20260505053557 0 198 2.0 3.0 0.00 0.00 0.00 1011.9
20260505053054 0 119 3.0 6.0 0.00 0.00 0.00 1011.8
20260505052551 0 207 1.0 6.0 0.00 0.00 0.00 1011.7
20260505052049 0 219 0.0 11.0 0.00 0.00 0.00 1012.0
20260505051545 0 172 1.0 5.0 0.00 0.00 0.00 1011.6
20260505051043 0 180 2.0 4.0 0.00 0.00 0.00 1011.7
20260505050541 0 203 0.0 6.0 0.00 0.00 0.00 1011.6
20260505041509 0 180 3.0 8.0 0.00 0.00 0.00 1011.5
20260505041006 0 200 3.0 5.0 0.00 0.00 0.00 1011.5
20260505040503 0 211 1.0 3.0 0.00 0.00 0.00 1011.6
20260505040001 0 165 1.0 2.0 0.00 0.00 0.00 1011.6
20260505035456 0 186 0.0 3.0 0.00 0.00 0.00 1011.6
20260505034954 0 217 1.0 4.0 0.00 0.00 0.00 1011.6
20260505034450 0 222 3.0 3.0 0.00 0.00 0.00 1011.6
20260505033947 0 173 3.0 8.0 0.00 0.00 0.00 1011.6
20260505033444 0 211 2.0 5.0 0.00 0.00 0.00 1011.6
20260505032942 0 168 2.0 4.0 0.00 0.00 0.00 1011.6
20260505032439 0 199 1.0 8.0 0.00 0.00 0.00 1011.7
20260505031935 0 207 3.0 6.0 0.00 0.00 0.00 1011.6
20260505031432 0 217 0.0 6.0 0.00 0.00 0.00 1011.4
20260505030929 0 197 3.0 8.0 0.00 0.00 0.00 1011.4
20260505030425 0 319 1.0 4.0 0.00 0.00 0.00 1011.4
20260505025921 0 175 3.0 5.0 0.00 0.00 0.00 1011.4
20260505025418 0 165 1.0 7.0 0.00 0.00 0.00 1011.4
20260505024917 0 154 3.0 7.0 0.00 0.00 0.00 1011.6
20260505024414 0 246 0.0 2.0 0.00 0.00 0.00 1011.5
20260505023911 0 188 2.0 8.0 0.00 0.00 0.00 1011.5
20260505023408 0 209 1.0 2.0 0.00 0.00 0.00 1011.6
20260505022905 0 166 0.0 3.0 0.00 0.00 0.00 1011.3
20260505022402 0 211 2.0 6.0 0.00 0.00 0.00 1011.4
20260505021859 0 191 1.0 3.0 0.00 0.00 0.00 1011.4
20260505021356 0 197 2.0 5.0 0.00 0.00 0.00 1011.3
20260505020852 0 208 2.0 5.0 0.00 0.00 0.00 1011.2
20260505020347 0 185 1.0 2.0 0.00 0.00 0.00 1011.1
20260505015844 0 243 1.0 6.0 0.00 0.00 0.00 1011.2
20260505015341 0 227 0.0 4.0 0.00 0.00 0.00 1011.2
20260505014839 0 228 0.0 5.0 0.00 0.00 0.00 1011.2
20260505014336 0 189 0.0 2.0 0.00 0.00 0.00 1011.3
20260505013832 0 177 1.0 3.0 0.00 0.00 0.00 1011.2
20260505013329 0 154 3.0 6.0 0.00 0.00 0.00 1011.2
20260505012828 0 222 0.0 5.0 0.00 0.00 0.00 1011.2
20260505012326 0 200 1.0 3.0 0.00 0.00 0.00 1011.2
20260505011821 0 208 0.0 2.0 0.00 0.00 0.00 1011.4
20260505011318 0 186 0.0 2.0 0.00 0.00 0.00 1011.2
20260505010814 0 141 3.0 4.0 0.00 0.00 0.00 1011.3
20260505010310 0 200 0.0 3.0 0.00 0.00 0.00 1011.1
20260505005806 0 237 0.0 3.0 0.00 0.00 0.00 1011.1
20260505005304 0 129 0.0 4.0 0.00 0.00 0.00 1011.1
20260505004801 0 229 1.0 4.0 0.00 0.00 0.00 1011.1